Wind_Speed
6 5 5 6 5 5 5 4 4 4 4 4 4 4 4 4 4 3 2 2 1 1 0 0 1 2 1 1 1 2 2 2 2 2 1 1 1 0 1 1 1 1 1 1 1 2 3 4 4
5 5 5 5 5 5 5 5 5 5 4 4 5 4 4 4 4 3 2 2 2 1 1 1 2 3 2 2 2 2 2 1 1 1 1 1 1 0 1 1 1 0 1 2 2 2 3 3 3
5 4 4 5 5 5 5 5 5 5 4 4 5 5 4 5 4 3 3 2 2 2 2 2 3 3 3 3 3 3 2 1 1 1 1 1 1 1 1 2 1 1 2 2 2 2 3 2 1
5 4 4 4 4 5 5 5 5 5 4 4 5 5 5 5 5 4 3 3 2 2 2 2 3 3 3 3 3 3 3 2 2 2 2 2 2 2 3 3 3 3 3 2 2 3 3 2 2
5 5 4 4 5 5 5 5 5 5 5 5 5 6 6 5 5 5 4 4 3 3 3 3 3 3 3 3 3 3 4 4 4 4 3 4 4 3 4 4 4 4 3 3 3 3 3 3 2
6 6 5 5 5 6 6 6 6 5 4 5 5 6 6 6 6 5 5 4 4 4 4 3 4 3 3 3 3 4 4 4 4 4 5 5 5 5 5 5 4 4 4 4 3 3 3 3 3
6 6 6 6 6 6 6 6 6 5 5 5 6 6 6 7 6 5 5 4 4 4 5 4 4 4 4 4 4 4 5 5 4 4 5 5 5 5 5 5 6 6 5 4 4 3 3 4 3
7 7 7 7 7 6 6 6 6 6 6 5 6 6 7 7 7 6 6 5 4 4 5 4 4 5 5 5 5 5 5 5 5 5 5 5 5 5 5 5 5 5 5 5 4 4 5 4 3
6 7 7 8 8 7 6 6 7 6 6 6 6 7 7 8 7 7 6 6 5 4 5 5 5 5 6 5 5 5 5 5 5 5 5 5 5 5 5 5 5 6 5 5 5 5 5 5 3
7 7 7 8 8 8 8 7 8 7 7 7 7 7 7 8 8 7 6 6 6 5 5 5 5 6 6 6 6 6 6 6 6 5 6 5 5 5 5 5 6 6 6 6 6 5 5 5 4
8 8 8 9 8 9 9 9 8 8 7 8 7 7 6 7 8 7 7 7 7 6 6 6 6 6 6 6 6 6 6 6 6 5 5 6 6 6 6 6 6 6 6 6 6 6 5 5 5
9 9 9 9 9 9 9 9 8 8 8 7 8 7 7 7 8 8 8 8 8 7 7 7 6 6 6 6 6 6 6 6 6 6 6 6 7 7 7 7 7 7 7 7 7 6 6 6 6
9 9 8 8 8 9 9 8 9 9 9 9 9 8 8 8 8 8 9 9 8 8 7 7 7 7 7 7 7 7 7 7 7 7 7 7 7 7 7 7 7 7 7 7 7 7 7 7 7
7 7 7 7 7 8 8 8 9 9 9 9 10 9 8 8 9 9 10 10 9 9 8 8 8 8 7 7 7 7 7 7 7 7 7 7 7 8 8 7 8 8 8 7 7 7 7 7 7
6 6 6 7 7 8 8 8 8 9 9 9 10 9 8 8 9 10 10 10 10 10 9 9 9 8 8 8 8 8 7 7 7 7 7 7 8 8 8 8 8 7 7 7 7 7 7 7 8
6 6 5 6 6 7 8 8 7 8 9 9 9 9 9 9 9 10 10 10 10 11 10 10 10 10 10 10 10 9 8 7 8 8 8 8 8 8 8 7 7 6 6 7 7 7 7 7 8
6 6 6 6 7 7 8 8 8 8 8 8 8 8 9 9 9 10 10 10 11 11 11 11 11 11 10 10 10 10 9 9 8 8 8 8 8 8 8 6 7 7 7 7 7 7 7 7 7
7 7 7 7 7 7 8 8 8 9 9 9 9 8 8 9 10 10 10 10 10 11 11 11 11 11 11 10 10 10 10 10 9 8 8 8 8 8 6 6 6 7 6 7 7 7 6 6 6
8 8 7 8 7 8 8 9 9 9 9 9 9 9 9 9 10 10 10 11 11 11 11 11 12 12 11 10 10 10 10 9 9 9 9 9 8 7 6 6 6 6 6 6 6 6 6 6 6
9 8 8 8 8 8 9 8 8 9 9 9 9 9 9 10 10 11 12 12 12 12 12 12 12 11 11 11 10 10 10 10 10 9 9 9 8 8 7 7 7 7 7 6 6 6 6 6 6
8 9 9 9 9 9 9 9 9 10 10 9 10 11 11 11 11 11 12 12 13 12 12 13 12 11 11 11 11 11 11 11 11 10 10 10 9 9 8 8 8 8 7 6 6 7 6 6 6
9 9 10 10 10 10 10 11 11 11 10 11 11 12 12 11 11 11 12 12 12 12 12 12 13 12 11 11 11 11 11 11 12 11 10 10 10 9 9 8 8 8 7 7 7 6 6 6 6
10 10 10 10 10 11 11 11 10 10 11 11 12 12 13 13 13 12 12 12 12 12 11 12 12 12 11 11 11 11 11 11 12 11 11 11 9 9 9 8 8 7 7 7 7 7 7 7 7
10 10 10 10 11 11 11 11 11 10 11 12 12 13 13 13 13 13 13 13 13 12 12 12 13 12 12 12 12 12 12 12 12 11 11 10 10 9 8 8 8 8 7 8 8 8 8 8 8
11 11 11 11 11 12 11 12 12 12 11 12 12 13 13 13 13 13 13 13 13 13 13 12 12 12 12 12 13 12 12 13 12 11 10 10 10 9 8 8 8 8 8 8 9 9 9 9 9
12 12 12 12 12 12 12 12 12 12 12 12 12 13 13 13 13 13 13 13 13 13 14 14 13 12 12 13 13 13 12 12 12 11 10 10 9 9 9 9 9 8 8 8 9 9 9 9 9
13 13 13 13 13 13 14 13 13 13 13 13 13 13 14 14 14 15 14 14 14 14 14 14 14 14 13 13 13 13 13 13 12 12 11 11 10 10 10 9 9 9 9 9 9 10 10 10 10
15 14 14 14 14 14 14 14 13 13 14 14 14 14 15 15 15 15 15 15 15 15 15 15 15 14 14 14 14 14 14 13 13 13 13 12 12 12 11 11 10 10 10 10 11 11 11 11 11
15 16 15 15 15 14 14 14 13 14 14 14 14 15 15 15 15 15 16 16 16 15 15 15 15 15 15 14 14 14 14 15 15 14 13 13 13 13 13 12 12 11 12 12 12 12 12 12 12
17 16 16 16 16 15 15 15 15 15 15 15 15 15 15 15 16 16 15 15 15 15 15 15 15 15 15 15 15 14 14 15 15 14 14 14 14 14 14 13 13 13 13 13 13 13 13 13 13
Wind_Direction
200 196 200 193 194 203 203 198 193 198 200 193 188 191 188 188 183 183 189 186 186 166 139 67 336 341 344 352 342 4 24 37 58 61 64 50 25 313 151 123 108 57 43 5 344 328 319 311 282
205 201 205 204 200 209 208 205 201 207 209 206 205 207 198 194 191 192 194 208 209 211 250 268 301 317 316 286 283 299 328 347 37 45 48 20 334 294 180 169 213 336 334 327 316 323 329 327 310
199 204 206 203 204 210 216 216 214 214 218 219 217 217 208 201 205 206 207 214 212 225 257 268 288 309 303 274 273 273 283 303 318 327 323 313 287 279 254 223 252 289 301 307 310 313 324 330 328
191 193 198 193 201 206 212 216 222 221 226 230 226 214 201 206 214 220 219 228 219 233 261 269 288 298 304 284 268 266 273 286 290 294 295 294 282 281 274 257 270 276 280 283 292 296 305 317 306
196 194 196 199 204 212 215 218 219 227 232 228 219 207 211 214 219 224 225 232 226 242 266 271 284 289 292 286 281 270 275 279 284 286 290 296 292 283 277 270 276 278 284 283 289 291 297 300 296
211 206 206 210 216 217 217 223 226 227 233 231 222 212 216 220 221 222 224 228 230 247 266 272 274 280 283 280 278 279 279 288 289 283 283 288 288 287 280 279 282 280 279 277 286 291 291 294 287
215 215 215 216 222 226 227 229 231 231 234 234 229 223 219 220 221 221 217 225 237 256 266 263 259 264 275 278 278 281 286 288 285 280 286 288 284 281 280 276 277 278 275 272 282 290 287 299 287
219 222 219 222 227 231 230 228 226 224 231 232 227 224 219 219 219 219 221 228 240 254 255 257 259 264 274 278 277 281 285 286 281 280 285 286 284 283 282 276 274 275 273 275 278 280 284 298 298
223 224 224 226 227 229 231 221 220 220 228 229 225 225 222 224 222 224 230 233 246 252 252 254 258 265 271 275 276 280 282 278 278 280 282 286 284 282 280 273 269 269 268 272 278 281 285 289 291
226 229 227 228 229 230 230 226 223 219 224 226 227 228 227 226 227 227 233 238 246 248 251 254 263 267 267 269 273 275 278 281 281 280 277 282 285 285 281 274 269 268 270 274 276 280 281 282 277
230 232 231 232 234 234 236 234 229 228 230 230 228 229 232 232 232 233 238 240 248 254 256 255 261 266 269 272 274 275 277 282 279 277 276 278 282 284 280 273 269 268 272 273 274 272 270 275 272
235 237 240 238 237 237 238 237 237 233 233 234 233 239 244 240 237 236 240 242 250 258 261 257 259 264 270 275 279 279 277 278 281 282 280 277 280 284 279 273 266 265 269 272 274 272 267 271 271
238 238 240 239 236 236 240 241 243 244 240 240 238 244 249 247 241 241 241 244 249 254 252 250 257 263 268 271 276 279 280 280 281 282 281 280 281 283 277 272 267 266 265 268 274 273 268 269 270
236 237 235 236 234 235 240 244 245 242 237 239 241 245 250 248 247 248 246 246 251 253 252 253 256 263 266 269 273 280 281 282 284 285 285 284 281 279 281 276 269 264 262 267 273 274 273 270 270
233 235 236 234 233 235 240 245 244 240 237 239 242 243 247 248 249 250 251 251 255 253 255 255 256 262 265 266 272 278 281 281 284 285 285 285 283 280 277 275 268 265 266 267 272 275 274 273 269
230 230 236 240 238 237 241 244 244 242 240 242 240 241 244 247 252 253 252 255 260 258 257 260 260 262 263 265 269 275 280 282 285 287 285 284 283 280 274 271 270 268 269 267 265 268 265 265 263
230 234 240 244 242 239 243 247 246 242 241 243 245 246 251 249 252 254 254 256 260 262 264 268 267 267 265 265 266 271 276 280 281 284 283 281 280 278 277 277 274 273 266 259 263 266 265 264 262
232 236 239 243 243 243 248 251 249 248 248 249 250 253 256 253 252 254 256 257 259 261 265 267 269 269 270 269 267 269 274 277 276 281 286 283 276 277 278 280 275 276 270 261 261 265 267 267 265
234 237 241 244 246 248 251 253 253 249 247 251 251 254 258 261 260 257 259 261 262 263 264 267 268 267 269 270 270 271 272 275 273 278 281 284 279 275 271 277 281 284 278 270 267 268 269 264 262
236 236 241 248 253 255 257 257 255 254 253 252 255 257 261 262 261 260 262 262 264 266 266 263 266 267 271 270 271 273 272 273 272 275 276 276 276 273 272 277 278 279 277 275 268 267 267 263 262
237 239 246 254 258 258 258 259 259 257 255 255 256 260 263 264 261 262 265 266 265 267 266 265 264 265 268 270 272 272 272 271 273 277 276 273 271 267 268 272 274 273 273 270 266 264 266 262 261
241 246 251 259 263 262 262 261 260 257 254 253 255 258 260 260 260 264 267 265 264 265 265 263 262 264 266 267 269 270 269 269 272 276 276 275 274 274 272 274 273 269 268 269 265 260 259 260 261
247 254 257 261 263 265 267 266 263 257 256 255 256 259 258 259 263 266 266 263 261 262 262 264 266 265 264 267 267 267 268 268 270 271 272 273 276 279 279 276 272 267 267 266 261 259 260 261 263
255 260 260 262 264 265 266 268 267 262 261 259 257 258 258 259 263 263 263 262 263 263 264 267 269 269 266 268 267 265 266 269 269 267 266 269 273 277 281 282 276 270 267 271 270 263 262 265 265
257 260 263 265 264 266 267 266 268 268 267 264 260 257 256 258 260 261 261 262 264 265 266 267 268 267 267 270 269 265 266 268 266 261 260 264 269 270 271 272 275 275 272 273 272 267 264 265 266
259 260 261 264 264 266 266 265 268 269 266 263 260 257 256 258 260 261 262 262 264 266 267 267 267 265 264 267 265 262 265 265 264 260 256 258 263 267 268 270 267 268 274 274 271 267 265 265 267
259 261 263 264 265 265 266 268 269 269 266 262 260 258 258 259 262 263 264 263 264 267 268 266 265 265 264 265 263 262 262 263 264 262 258 256 261 266 267 270 268 267 272 274 272 271 270 270 272
258 259 261 263 266 269 270 269 270 269 266 264 262 259 258 258 260 261 264 265 264 265 266 266 265 266 265 261 260 257 260 263 265 262 258 260 261 260 261 264 267 268 272 273 272 272 273 273 272
258 258 259 262 265 266 266 269 266 267 265 267 267 263 258 256 256 256 259 263 264 263 265 264 262 262 262 262 261 258 261 262 265 263 261 263 261 257 257 261 263 268 272 272 271 272 274 275 272
257 258 259 262 264 264 265 268 269 267 265 266 267 263 258 257 255 257 256 259 261 262 263 263 260 261 263 263 264 263 264 264 264 261 262 264 263 261 260 262 264 267 267 268 268 271 273 273 273
Height
5885 5886 5888 5889 5891 5891 5891 5892 5892 5892 5892 5893 5893 5893 5894 5894 5895 5897 5895 5893 5893 5893 5893 5892 5892 5891 5891 5890 5890 5889 5889 5888 5887 5887 5886 5885 5885 5885 5884 5884 5884 5884 5883 5883 5882 5882 5881 5880 5878
5884 5886 5888 5889 5889 5890 5891 5891 5891 5891 5892 5892 5892 5893 5893 5893 5893 5894 5893 5893 5893 5893 5892 5892 5891 5891 5890 5890 5889 5889 5889 5888 5887 5887 5886 5885 5885 5884 5884 5884 5884 5883 5883 5883 5882 5881 5881 5879 5875
5884 5885 5887 5888 5888 5889 5890 5890 5890 5890 5891 5891 5891 5892 5892 5892 5893 5893 5892 5892 5892 5892 5892 5891 5891 5890 5890 5889 5889 5889 5888 5888 5887 5887 5886 5885 5885 5884 5884 5884 5883 5883 5883 5882 5882 5881 5880 5879 5876
5884 5885 5887 5887 5887 5888 5888 5889 5889 5889 5890 5890 5890 5891 5891 5892 5892 5892 5892 5892 5892 5891 5891 5891 5890 5890 5889 5889 5888 5888 5888 5888 5887 5886 5886 5885 5884 5884 5883 5883 5883 5882 5882 5881 5881 5880 5880 5879 5878
5883 5885 5886 5886 5886 5887 5887 5887 5888 5888 5888 5889 5889 5889 5890 5891 5891 5891 5891 5891 5891 5891 5890 5890 5890 5889 5889 5888 5888 5888 5887 5887 5886 5886 5885 5884 5883 5883 5883 5882 5882 5882 5881 5881 5880 5880 5879 5879 5878
5883 5884 5885 5885 5885 5886 5886 5886 5887 5887 5887 5888 5888 5888 5889 5889 5890 5890 5890 5890 5890 5890 5890 5889 5889 5888 5888 5887 5887 5887 5886 5886 5885 5885 5884 5884 5883 5882 5882 5882 5881 5881 5880 5880 5880 5879 5879 5878 5878
5882 5883 5883 5884 5884 5884 5885 5885 5886 5886 5887 5887 5887 5887 5888 5888 5889 5889 5889 5889 5889 5889 5889 5888 5888 5888 5887 5887 5886 5886 5885 5885 5884 5884 5883 5883 5882 5882 5881 5880 5880 5880 5879 5879 5879 5878 5878 5877 5876
5880 5882 5882 5883 5883 5883 5883 5884 5884 5885 5886 5886 5886 5886 5887 5887 5887 5887 5888 5888 5888 5888 5888 5887 5887 5886 5886 5886 5885 5885 5884 5884 5884 5883 5882 5882 5881 5880 5880 5879 5879 5879 5878 5878 5878 5877 5876 5876 5875
5879 5881 5881 5881 5882 5882 5882 5882 5883 5883 5884 5884 5885 5885 5885 5886 5886 5886 5887 5887 5887 5887 5887 5886 5886 5886 5885 5885 5884 5884 5884 5883 5882 5882 5881 5881 5880 5879 5879 5878 5878 5878 5877 5877 5876 5876 5875 5875 5874
5878 5879 5879 5880 5880 5880 5881 5881 5882 5882 5883 5883 5883 5883 5883 5884 5885 5885 5885 5885 5885 5886 5886 5885 5885 5885 5884 5884 5883 5883 5883 5882 5881 5881 5880 5879 5879 5878 5878 5877 5877 5876 5876 5876 5876 5875 5874 5874 5874
5876 5877 5877 5878 5878 5879 5879 5880 5880 5881 5881 5882 5882 5882 5882 5883 5883 5883 5884 5884 5884 5884 5884 5884 5884 5883 5883 5883 5882 5882 5881 5881 5880 5879 5879 5878 5878 5877 5876 5876 5875 5875 5875 5874 5874 5874 5873 5873 5873
5874 5875 5875 5876 5876 5877 5877 5878 5878 5879 5880 5880 5880 5880 5881 5881 5882 5882 5882 5883 5883 5883 5883 5883 5883 5882 5882 5881 5881 5881 5880 5880 5879 5878 5877 5877 5876 5876 5875 5874 5874 5874 5874 5873 5873 5872 5872 5872 5872
5872 5873 5873 5874 5874 5875 5875 5876 5877 5877 5877 5878 5878 5879 5879 5880 5880 5880 5881 5881 5881 5881 5881 5881 5881 5881 5881 5880 5880 5879 5879 5878 5877 5877 5876 5875 5875 5874 5874 5873 5872 5872 5872 5872 5871 5871 5871 5871 5870
5870 5871 5871 5872 5873 5873 5874 5874 5875 5875 5875 5876 5877 5877 5877 5878 5878 5879 5879 5879 5880 5880 5880 5880 5880 5879 5879 5879 5879 5878 5877 5877 5876 5875 5875 5874 5873 5873 5872 5872 5871 5871 5870 5870 5870 5869 5869 5869 5869
5868 5869 5870 5870 5871 5871 5872 5873 5873 5873 5874 5874 5875 5875 5876 5876 5877 5877 5877 5877 5878 5878 5878 5878 5878 5878 5878 5877 5877 5877 5876 5875 5875 5874 5873 5872 5872 5871 5870 5870 5869 5869 5869 5869 5868 5868 5868 5867 5867
5867 5868 5869 5869 5869 5870 5872 5872 5872 5871 5872 5873 5873 5874 5874 5874 5875 5875 5875 5876 5876 5875 5875 5876 5876 5876 5876 5876 5875 5875 5875 5874 5873 5872 5871 5871 5870 5869 5869 5868 5868 5867 5867 5867 5867 5867 5866 5866 5865
5866 5867 5867 5868 5868 5868 5869 5870 5870 5870 5870 5871 5872 5872 5872 5873 5873 5873 5874 5874 5874 5874 5874 5874 5874 5874 5874 5874 5873 5873 5873 5872 5871 5870 5870 5869 5868 5868 5867 5867 5866 5866 5865 5865 5865 5865 5865 5864 5864
5865 5865 5865 5866 5866 5867 5867 5867 5868 5868 5869 5869 5870 5870 5871 5871 5871 5871 5872 5872 5872 5872 5872 5872 5872 5871 5871 5871 5871 5871 5871 5870 5869 5869 5868 5867 5867 5866 5866 5865 5865 5864 5864 5864 5864 5863 5863 5863 5862
5862 5863 5864 5864 5865 5865 5865 5866 5866 5866 5867 5867 5868 5868 5869 5869 5869 5869 5870 5870 5870 5869 5869 5869 5869 5869 5869 5869 5869 5869 5868 5868 5867 5867 5866 5866 5865 5865 5864 5864 5863 5863 5863 5862 5862 5862 5861 5861 5861
5860 5862 5862 5863 5863 5863 5863 5864 5864 5864 5865 5866 5866 5867 5867 5867 5867 5867 5867 5867 5867 5867 5867 5867 5867 5867 5867 5867 5867 5867 5866 5866 5865 5865 5865 5864 5864 5863 5863 5862 5862 5862 5861 5861 5860 5860 5860 5859 5859
5859 5860 5860 5861 5861 5861 5862 5862 5862 5862 5863 5863 5864 5864 5864 5865 5865 5865 5865 5865 5865 5865 5864 5864 5864 5864 5864 5864 5864 5864 5864 5864 5863 5863 5863 5862 5862 5861 5861 5861 5860 5860 5860 5859 5859 5859 5859 5858 5857
5857 5857 5858 5858 5859 5859 5860 5860 5860 5860 5861 5861 5861 5861 5862 5862 5862 5862 5862 5862 5862 5862 5862 5862 5862 5862 5862 5862 5862 5862 5861 5861 5861 5861 5860 5860 5860 5859 5859 5859 5858 5858 5858 5857 5857 5857 5857 5856 5856
5854 5855 5855 5856 5856 5856 5857 5857 5858 5858 5858 5858 5858 5858 5859 5859 5859 5859 5859 5859 5859 5859 5859 5859 5859 5859 5859 5859 5859 5859 5859 5859 5858 5858 5858 5858 5857 5857 5857 5857 5856 5856 5856 5856 5855 5855 5855 5855 5854
5851 5852 5853 5853 5854 5854 5855 5855 5855 5855 5855 5855 5855 5855 5856 5856 5856 5856 5856 5856 5856 5856 5856 5856 5856 5856 5856 5856 5856 5856 5856 5856 5855 5855 5855 5855 5855 5855 5855 5854 5854 5854 5854 5854 5854 5853 5853 5853 5852
5849 5850 5851 5851 5851 5852 5852 5852 5852 5852 5852 5852 5852 5852 5852 5852 5852 5853 5853 5853 5854 5854 5853 5853 5853 5853 5854 5853 5853 5853 5853 5853 5852 5852 5852 5853 5853 5853 5852 5852 5852 5852 5852 5851 5851 5851 5851 5850 5850
5846 5847 5848 5849 5849 5848 5848 5848 5849 5849 5848 5848 5848 5848 5848 5849 5849 5849 5850 5850 5850 5850 5850 5850 5851 5851 5850 5850 5850 5850 5850 5850 5849 5849 5850 5850 5850 5850 5850 5850 5850 5850 5849 5849 5849 5849 5848 5848 5848
5842 5843 5844 5844 5844 5845 5845 5845 5845 5845 5844 5844 5844 5844 5844 5845 5845 5845 5846 5846 5847 5847 5847 5847 5847 5847 5847 5847 5847 5847 5847 5847 5847 5847 5847 5847 5847 5848 5848 5848 5847 5847 5847 5847 5847 5846 5846 5845 5845
5839 5839 5840 5840 5840 5841 5841 5841 5842 5841 5840 5840 5840 5840 5840 5841 5841 5841 5842 5842 5843 5843 5843 5843 5843 5843 5843 5844 5844 5844 5844 5844 5844 5844 5844 5844 5844 5845 5845 5845 5844 5844 5844 5844 5844 5844 5843 5843 5842
5834 5835 5835 5836 5836 5837 5837 5839 5837 5837 5836 5836 5836 5836 5836 5836 5837 5837 5838 5838 5838 5839 5839 5839 5839 5839 5840 5840 5840 5840 5840 5840 5840 5840 5840 5841 5841 5841 5841 5841 5841 5841 5841 5841 5841 5840 5840 5840 5839
5829 5830 5831 5832 5832 5832 5832 5836 5832 5832 5832 5831 5831 5831 5831 5832 5832 5833 5833 5834 5834 5834 5835 5835 5835 5835 5835 5836 5836 5836 5836 5836 5837 5837 5837 5837 5837 5837 5837 5837 5837 5837 5837 5837 5837 5837 5836 5836 5835